Lid_Strength_Index
7 7 7 7 7 7 6 5 5 5 7 7 6 7 7 6 6 7 7 7 8 7
8 8 8 8 8 7 7 6 5 5 6 7 7 6 7 7 7 7 8 9 8 7
9 9 9 9 9 9 8 7 7 6 6 7 7 6 7 8 7 7 8 8 9 9
9 10 10 10 10 10 9 9 8 7 6 7 8 7 7 8 8 8 8 9 9 9
10 10 11 12 12 11 11 10 9 9 8 8 8 7 7 8 8 9 9 9 10 10
12 12 13 13 13 13 13 12 10 10 9 9 8 7 7 8 9 9 10 9 10 10
15 15 15 15 15 15 14 13 12 11 11 10 9 8 8 8 8 9 10 9 9 10
17 17 17 17 17 16 15 14 13 12 11 10 8 8 7 7 8 8 10 10 10 9
18 19 19 19 19 18 17 15 13 13 12 11 9 7 7 7 8 8 9 10 10 9
19 20 20 20 19 18 17 15 14 13 12 12 10 7 7 7 7 8 8 10 10 10
21 21 21 21 19 18 16 15 14 13 13 12 11 9 8 8 7 8 8 9 10 10
21 21 20 20 19 17 16 15 14 13 13 13 12 10 8 8 9 8 8 8 9 10
20 20 20 19 18 17 16 15 15 14 13 13 13 11 10 9 9 10 10 9 9 9
20 19 18 18 17 17 16 16 15 15 14 13 13 13 11 10 10 10 11 10 11 10